Location: Unspecified
(43.4354°N, 0.0000°E)
Time: 10:55:02
(UTC+00:00)

A-11 Canister half - Pass Details

Date: 20 June 2019
Orbit: 1514 x 1686 km, 47.2° (Epoch: 16 October)

Event Time Altitude Azimuth Distance (km) Brightness Sun altitude
Rises 18:30:13 0° 294° (WNW) 4,743 13.9 11.0°
Reaches altitude 10° 18:33:49 10° 283° (WNW) 3,733 13.6 10.4°
Maximum altitude 18:41:24 29° 229° (SW) 2,519 10.6 9.1°
Drops below altitude 10° 18:48:53 10° 174° (S) 3,663 10.7 7.9°
Sets 18:52:25 0° 163° (SSE) 4,640 11.1 7.3°
